Weather in Petrovka

Ukraine / Odesa District     47°20′29″N   30°36′54″E
temp.,
°C
wind,
m/s
gust,
m/s
humid.,
%
clouds,
%
prec.,
mm/h
press.,
hPa
HPBL,
m
21 april, wed
wed2100:00+7wnw357861 0.0 101191
03:00+6wnw33815 0.0 101242
06:00+6w22825 0.0 101311
09:00+11wsw346333 0.0 1014442
12:00+15wsw564694 0.1 10141888
15:00+16w4540100 0.1 10142199
18:00+15sw245093 0.1 1015631
21:00+12ssw34628 0.1 101766
22 april, thu
thu2200:00+8ssw45845 0.0 101883
03:00+8ssw36905 0.0 101891
06:00+7s33885 0.0 101831
09:00+13s56675 0.0 1019421
12:00+17s66476 0.1 10191892
15:00+18s6642100 0.1 10182461
18:00+15sse586113 0.3 1017316
21:00+11sse5118015 0.4 1018217
23 april, fri
fri2300:00+11s5127792 0.0 1018310
03:00+9s511835 0.1 1017224
06:00+8s5129077 0.0 1016239
09:00+12ssw71177100 0.3 1016457
12:00+16ssw796354 0.3 10151033
15:00+14wsw5872100 3.8 1014711
18:00+7nnw5893100 14.3 1017502
21:00+7nnw478395 14.7 1019671
24 april, sat
sat2400:00+5wnw23855 0.0 101947
03:00+4w378746 0.0 1019140
06:00+4w478858 0.0 1020144
09:00+8wnw5669100 0.0 1021614
12:00+9wnw346188 0.2 10211103
15:00+11wnw695057 0.9 10201917
18:00+11wnw611415 0.0 10202484
21:00+6wnw37595 0.0 1022137
25 april, sun
sun2500:00+4wnw34645 0.0 102251
03:00+3wsw22644 0.0 102218
06:00+3w22630 0.0 102110
09:00+8ssw22465 0.0 1021399
12:00+12sw454199 0.0 10201958
15:00+13sw464573 0.3 10182051
18:00+11nw3460100 0.7 10181019
21:00+8n586769 1.1 1019447